Location: Newark
(13.8117°N, 3.6025°W)
Time: 08:30:35
(UTC+00:00)

Vanguard 2 - Pass Details

Date: 28 August 2019
Orbit: 554 x 2937 km, 32.9° (Epoch: 21 September)

Event Time Altitude Azimuth Distance (km) Brightness Sun altitude
Rises 15:22:55 0° 312° (NW) 3,875 11.6 44.1°
Reaches altitude 10° 15:25:25 10° 320° (NW) 3,180 11.3 43.4°
Maximum altitude 15:33:10 40° 29° (NNE) 2,326 10.2 41.6°
Drops below altitude 10° 15:45:27 10° 94° (E) 5,016 11.3 38.6°
Sets 15:50:31 0° 101° (E) 6,340 11.7 37.4°
